FW9255 Weather Reports


time (UTC)temp
C
wind
direction
speed
KPH
gust
KPH
rain 1hr
cm
rain 24hr
cm
rain mn
cm
humidity
%
barometer
mb
20260906224610 36 0 1.6 12.9 0.00 0.00 0.00 42 1012.0
20260906223112 36 0 1.6 9.7 0.00 0.00 0.00 42 1012.2
20260906221604 36 0 0.0 16.1 0.00 0.00 0.00 42 1012.2
20260906220113 36 138 1.6 12.9 0.00 0.00 0.00 42 1012.2
20260906214626 36 121 1.6 11.3 0.00 0.00 0.00 42 1012.4
20260906213105 37 135 0.0 8.0 0.00 0.00 0.00 42 1012.6
20260906211605 36 117 0.0 11.3 0.00 0.00 0.00 44 1012.8
20260906210109 36 128 1.6 11.3 0.00 0.00 0.00 43 1013.0
20260906204623 36 0 0.0 16.1 0.00 0.00 0.00 44 1013.3
20260906203101 36 121 4.8 20.9 0.00 0.00 0.00 44 1013.5
20260906201616 36 0 1.6 14.5 0.00 0.00 0.00 44 1013.6
20260906194607 36 0 1.6 16.1 0.00 0.00 0.00 44 1013.8
20260906193108 36 0 1.6 12.9 0.00 0.00 0.00 45 1014.1
20260906191604 36 130 3.2 14.5 0.00 0.00 0.00 43 1014.3
20260906184610 35 148 0.0 12.9 0.00 0.00 0.00 47 1014.5
20260906183108 35 119 3.2 16.1 0.00 0.00 0.00 47 1014.9
20260906181610 35 0 0.0 6.4 0.00 0.00 0.00 48 1015.1
20260906180119 35 0 0.0 8.0 0.00 0.00 0.00 50 1015.2
20260906174609 34 0 0.0 8.0 0.00 0.00 0.00 51 1015.5
20260906173105 34 0 0.0 11.3 0.00 0.00 0.00 51 1015.7
20260906171608 34 0 0.0 8.0 0.00 0.00 0.00 54 1015.7
20260906170108 33 0 0.0 8.0 0.00 0.00 0.00 53 1016.0
20260906164610 33 0 0.0 0.0 0.00 0.00 0.00 54 1016.1
20260906163103 33 0 0.0 0.0 0.00 0.00 0.00 56 1016.2
20260906161604 33 0 0.0 3.2 0.00 0.00 0.00 57 1016.0
20260906160100 33 0 0.0 0.0 0.00 0.00 0.00 58 1015.9
20260906154607 32 0 0.0 0.0 0.00 0.00 0.00 59 1016.0
20260906153104 32 0 0.0 0.0 0.00 0.00 0.00 64 1015.9
20260906151603 31 0 0.0 0.0 0.00 0.00 0.00 65 1015.6
20260906150110 31 0 0.0 0.0 0.00 0.00 0.00 66 1015.5
20260906144606 31 0 0.0 0.0 0.00 0.00 0.00 67 1015.5
20260906143112 30 0 0.0 0.0 0.00 0.00 0.00 68 1015.5
20260906141603 30 0 0.0 0.0 0.00 0.00 0.00 71 1015.6
20260906140111 30 0 0.0 0.0 0.00 0.00 0.00 73 1015.7
20260906134605 28 0 0.0 0.0 0.00 0.00 0.00 77 1015.7
20260906133111 28 0 0.0 0.0 0.00 0.00 0.00 79 1015.8
20260906131605 27 0 0.0 0.0 0.00 0.00 0.00 82 1015.8
20260906130105 25 0 0.0 0.0 0.00 0.00 0.00 86 1015.6
20260906124601 25 0 0.0 0.0 0.00 0.00 0.00 86 1015.3
20260906123115 25 0 0.0 0.0 0.00 0.00 0.00 85 1015.4
20260906121607 25 0 0.0 0.0 0.00 0.00 0.00 85 1015.0
20260906120147 25 0 0.0 0.0 0.00 0.00 0.00 84 1015.0
20260906114617 25 0 0.0 0.0 0.00 0.00 0.00 84 1014.9
20260906113059 25 0 0.0 0.0 0.00 0.00 0.00 83 1014.9
20260906111626 25 0 0.0 0.0 0.00 0.00 0.00 83 1014.7
20260906110104 25 0 0.0 0.0 0.00 0.00 0.00 82 1014.5
20260906104602 25 0 0.0 0.0 0.00 0.00 0.00 82 1014.5
20260906103109 25 0 0.0 0.0 0.00 0.00 0.00 80 1014.4
20260906101606 26 0 0.0 0.0 0.00 0.00 0.00 79 1014.4
20260906100107 26 0 0.0 0.0 0.00 0.00 0.00 78 1014.3
20260906094602 27 0 0.0 0.0 0.00 0.00 0.00 77 1014.3
20260906093108 27 0 0.0 0.0 0.00 0.00 0.00 75 1014.1
20260906091603 27 0 0.0 0.0 0.00 0.00 0.00 75 1014.0
20260906090100 27 0 0.0 0.0 0.00 0.00 0.00 75 1013.8
20260906084607 27 0 0.0 0.0 0.00 0.00 0.00 74 1013.9
20260906083055 27 0 0.0 0.0 0.00 0.00 0.00 73 1013.7
20260906081605 28 0 0.0 0.0 0.00 0.00 0.00 72 1013.7
20260906074558 28 0 0.0 0.0 0.00 0.00 0.00 70 1013.6
20260906073055 28 0 0.0 0.0 0.00 0.00 0.00 70 1013.8
20260906071604 28 0 0.0 0.0 0.00 0.00 0.00 69 1014.0
20260906070104 28 0 0.0 0.0 0.00 0.00 0.00 68 1014.1
20260906064556 28 0 0.0 0.0 0.00 0.00 0.00 69 1014.1
20260906063106 28 0 0.0 0.0 0.00 0.00 0.00 69 1014.0
20260906061608 28 0 0.0 0.0 0.00 0.00 0.00 70 1014.0
20260906060109 28 0 0.0 0.0 0.00 0.00 0.00 68 1013.9
20260906054616 28 0 0.0 0.0 0.00 0.00 0.00 67 1013.9
20260906053105 29 0 0.0 0.0 0.00 0.00 0.00 66 1014.1
20260906051605 29 0 0.0 0.0 0.00 0.00 0.00 66 1014.1
20260906050107 30 0 0.0 0.0 0.00 0.00 0.00 64 1014.1
20260906044600 30 0 0.0 0.0 0.00 0.00 0.00 63 1014.0
20260906043104 30 0 0.0 0.0 0.00 0.00 0.00 61 1014.0
20260906041604 30 0 0.0 0.0 0.00 0.00 0.00 60 1013.9
20260906040109 31 0 0.0 0.0 0.00 0.00 0.00 59 1013.9
20260906034556 31 0 0.0 0.0 0.00 0.00 0.00 59 1014.1
20260906033135 31 0 0.0 0.0 0.00 0.00 0.00 59 1013.9
20260906031614 31 0 0.0 0.0 0.00 0.00 0.00 58 1014.0
20260906030059 31 142 4.8 14.5 0.00 0.00 0.00 57 1013.9
20260906024608 31 138 6.4 16.1 0.00 0.00 0.00 56 1013.8
20260906023104 32 140 6.4 12.9 0.00 0.00 0.00 56 1013.5
20260906021614 32 144 4.8 14.5 0.00 0.00 0.00 54 1013.3
20260906014606 33 182 6.4 17.7 0.00 0.00 0.00 51 1012.8
20260906013112 33 0 0.0 0.0 0.00 0.00 0.00 51 1012.5
20260906011607 33 0 0.0 0.0 0.00 0.00 0.00 50 1012.4
20260906010105 34 0 0.0 0.0 0.00 0.00 0.00 48 1012.3
20260906004603 35 0 0.0 0.0 0.00 0.00 0.00 45 1012.1
20260906003105 35 0 0.0 0.0 0.00 0.00 0.00 43 1012.1
20260906001623 36 0 0.0 0.0 0.00 0.00 0.00 41 1012.0
20260906000108 36 0 0.0 0.0 0.00 0.00 0.00 41 1012.0
20260905234602 36 0 0.0 0.0 0.00 0.00 0.00 42 1011.8
20260905233104 36 0 0.0 0.0 0.00 0.00 0.00 41 1011.9
20260905231608 36 0 0.0 0.0 0.00 0.00 0.00 41 1011.9
20260905230105 36 0 0.0 9.7 0.00 0.00 0.00 40 1011.9